sat.trackr.live / text

‹ back to catalog

ONEWEB-0317

NORAD 49103 · 2021-075AE

PAYLOAD ACTIVE UNKNOWN

§ Identity

Operator
Country
UK
Launch date
2021-08-21
Launch site
TYMSC
Launch vehicle
Mass (kg)
RCS (m²)

Purposes: comms

External: N2YO · Heavens-Above · Gunter

§ Orbital elements

Epoch: 2026-05-25T02:41:19.810176Z

Period
109.72 min
Inclination
87.8961°
Eccentricity
0.0001076
Mean motion
13.12441330 rev/d
Perigee alt
1,212.9 km
Apogee alt
1,214.5 km
Semi-major
7,591.9 km
B*
1.1458e-3
RAAN
355.2567°
Arg perigee
80.1945°
Mean anomaly
279.9305°
Rev number
23,216

§ Raw data

ONEWEB-03171 49103U 21075AE  26145.11203484  .00000425  00000+0  11458-2 0  99942 49103  87.8961 355.2567 0001076  80.1945 279.9305 13.12441330232163

JSON: /api/v1/satellites/49103 · /tle

For live sub-satellite position, see the globe view (requires WebGL).

§ Visibility from observer

Set your observer location to see the next 7 days of passes ≥ 10°. The values pass through the URL so the page stays shareable.

No JS? Fill the form by hand. The geolocation button needs JavaScript.